Flag for Netherlands Weather past 2 weeks in Zaandam, Netherlands

Now
48 °F

Partly sunny.


Feels Like: 42 °F
Forecast: 40 / 52 °F
Wind: 15 mph from Southwest

Location: Amsterdam Schiphol Airport

Current Time: Mar 6, 2015 at 4:01:18 PM

Latest Report: Mar 6, 2015 at 3:25 PM


Visibility: N/A

Pressure: 30.51 "Hg

Humidity: 62%

Dew point: 36 °F

Location of ZaandamLocation

Historic Weather in Zaandam — Graph

°F

Zaandam temperature yesterday

Maximum temperature yesterday: 48 °F (at 11:55 AM)
Minimum temperature yesterday: 32 °F (at 5:55 AM)
Average temperature yesterday: 42 °F

Past Weeks' High & Low Weather Summary

 TemperatureHumidityPressure
High50 °F (Mar 1, 10:55 AM)100% (Feb 20, 8:25 AM)30.63 "Hg (Feb 20, 8:25 AM)
Low30 °F (Feb 22, 2:25 AM)54% (Feb 23, 3:25 PM)29.24 "Hg (Feb 23, 3:25 AM)
Average42 °F84%29.85 "Hg
* Reported Feb 19 2:25 PM — Mar 6 2:55 PM, Zaandam, Weather by CustomWeather, © 2015

Note: Actual official high and low records may vary slightly from our data, if they occured in-between our weather recording intervals... More about our weather records

Advertising

Zaandam weather history for previous 24 hours

 ConditionsComfort  
Time TempWeatherWind HumidityBarometerVisibility
2:55 PM
Fri, Mar 6
48 °FPartly sunny.14 mph58%30.51 "HgN/A
2:25 PM48 °FPartly sunny.16 mph58%30.51 "HgN/A
1:55 PM48 °FPartly sunny.13 mph62%30.54 "HgN/A
1:25 PM48 °FPartly sunny.15 mph58%30.54 "HgN/A
12:55 PM48 °FPartly sunny.16 mph62%30.57 "HgN/A
12:25 PM48 °FPartly sunny.14 mph62%30.57 "HgN/A
11:55 AM48 °FOvercast.14 mph66%30.57 "HgN/A
11:25 AM48 °FOvercast.12 mph66%30.57 "HgN/A
10:55 AM46 °FOvercast.13 mph76%30.57 "HgN/A
10:25 AM46 °FOvercast.14 mph76%30.57 "HgN/A
9:55 AM46 °FPartly sunny.13 mph76%30.57 "HgN/A
9:25 AM45 °FOvercast.9 mph81%30.57 "HgN/A
8:55 AM45 °FOvercast.9 mph81%30.57 "HgN/A
8:25 AM45 °FOvercast.10 mph81%30.57 "HgN/A
7:55 AM43 °FOvercast.8 mph87%30.57 "HgN/A
7:25 AM43 °FOvercast.8 mph87%30.57 "HgN/A
6:55 AM43 °FOvercast.8 mph87%30.57 "HgN/A
6:25 AM43 °FOvercast.8 mph87%30.57 "HgN/A
5:55 AM43 °FOvercast.7 mph87%30.57 "HgN/A
5:25 AM43 °FOvercast.8 mph87%30.57 "HgN/A
4:55 AM43 °FOvercast.9 mph87%30.57 "HgN/A
4:25 AM43 °FOvercast.7 mph87%30.57 "HgN/A
3:55 AM43 °FOvercast.7 mph87%30.57 "HgN/A
3:25 AM43 °FOvercast.6 mph87%30.57 "HgN/A
2:55 AM43 °FOvercast.8 mph87%30.57 "HgN/A
2:25 AM43 °FOvercast.8 mph87%30.60 "HgN/A
1:55 AM43 °FOvercast.8 mph87%30.57 "HgN/A
1:25 AM43 °FOvercast.8 mph87%30.60 "HgN/A
12:55 AM43 °FOvercast.8 mph87%30.60 "HgN/A
12:25 AM43 °FOvercast.7 mph87%30.60 "HgN/A
11:55 PM
Thu, Mar 5
45 °FOvercast.7 mph81%30.60 "HgN/A
11:25 PM45 °FOvercast.10 mph81%30.60 "HgN/A
10:55 PM43 °FOvercast.8 mph87%30.60 "HgN/A
10:25 PM43 °FOvercast.9 mph87%30.60 "HgN/A
9:25 PM43 °FOvercast.10 mph87%30.60 "HgN/A
8:55 PM43 °FOvercast.10 mph87%30.60 "HgN/A
8:25 PM43 °FOvercast.10 mph87%30.60 "HgN/A
7:55 PM43 °FPassing clouds.8 mph87%30.60 "HgN/A
7:25 PM41 °FPassing clouds.9 mph87%30.60 "HgN/A
6:55 PM43 °FClear.12 mph81%30.60 "Hg10 mi
6:25 PM43 °FSunny.10 mph81%30.60 "Hg10 mi
5:55 PM45 °FSunny.10 mph76%30.60 "Hg10 mi
5:25 PM45 °FSunny.10 mph76%30.60 "Hg10 mi
4:55 PM45 °FSunny.12 mph76%30.63 "Hg10 mi
4:25 PM46 °FSunny.13 mph71%30.63 "Hg10 mi
Weather by CustomWeather, © 2015

See weather overviewHow to use our weather pages